sat.trackr.live / text

‹ back to catalog

STARLINK-37151

NORAD 68290 · 2026-055AE

PAYLOAD ACTIVE UNKNOWN

§ Identity

Operator
Country
US
Launch date
2026-03-19
Launch site
AFETR
Launch vehicle
Mass (kg)
RCS (m²)

Purposes: comms

External: N2YO · Heavens-Above · Gunter

§ Orbital elements

Epoch: 2026-09-20T01:28:47.396352Z

Period
93.85 min
Inclination
53.1558°
Eccentricity
0.0001145
Mean motion
15.34408439 rev/d
Perigee alt
461.9 km
Apogee alt
463.5 km
Semi-major
6,840.8 km
B*
6.3546e-4
RAAN
131.9255°
Arg perigee
62.4957°
Mean anomaly
297.6162°
Rev number
2,975

§ Raw data

STARLINK-371511 68290U 26055AE  26263.06165968  .00021160  00000+0  63546-3 0  99992 68290  53.1558 131.9255 0001145  62.4957 297.6162 15.34408439 29751

JSON: /api/v1/satellites/68290 · /tle

For live sub-satellite position, see the globe view (requires WebGL).

§ Visibility from observer

Set your observer location to see the next 7 days of passes ≥ 10°. The values pass through the URL so the page stays shareable.

No JS? Fill the form by hand. The geolocation button needs JavaScript.